period_start,C,m1,H,J0,J1,J2,J3,J4,J5,JA,JB,JC,JD,JJ,JK,JN,#
2017-09-22 00:02:12,0.00,0.25,0.00,17.12,20.92,23.61,14.13,45.44,1019.06,2057.98,3453.00,3068.01,3505.02,599.91,609.42,40.77,0000 0000 0000 0000 000000
2017-09-22 00:07:13,0.00,0.25,0.00,17.12,20.92,23.61,14.21,45.45,1019.06,2057.99,3452.99,3068.00,3505.00,599.82,609.32,40.82,0000 0000 0000 0000 000000
2017-09-22 00:12:14,0.00,0.25,0.00,17.12,20.92,23.61,14.34,45.65,1019.06,2057.99,3452.99,3068.01,3505.00,600.28,609.82,40.87,0000 0000 0000 0000 000000
2017-09-22 00:17:16,0.00,0.25,0.00,17.12,20.90,23.58,14.32,45.56,1019.06,2057.99,3452.96,3068.00,3505.00,600.39,609.97,40.92,0000 0000 0000 0000 000000
2017-09-22 00:22:17,-0.00,0.25,0.00,17.11,20.89,23.59,14.10,45.48,1019.06,2057.99,3452.92,3068.00,3505.00,599.73,609.24,40.97,0000 0000 0000 0000 000000
2017-09-22 00:27:18,0.00,0.25,0.00,17.11,20.89,23.58,14.21,45.55,1019.07,2057.99,3452.94,3068.00,3504.98,599.97,609.54,41.02,0000 0000 0000 0000 000000
2017-09-22 00:32:19,0.01,0.25,0.00,17.10,20.89,23.60,14.24,45.40,1019.09,2057.99,3452.60,3068.00,3504.92,600.06,609.59,41.07,0000 0000 0000 0000 000000
2017-09-22 00:37:20,0.00,0.25,0.00,17.11,20.89,23.62,14.32,45.48,1019.11,2057.99,3452.37,3068.00,3504.84,599.98,609.66,41.12,0000 0000 0000 0000 000000
2017-09-22 00:42:21,0.01,0.25,0.00,17.11,20.89,23.55,14.22,45.55,1019.09,2057.99,3452.05,3067.99,3504.59,599.66,609.28,41.17,0000 0000 0000 0000 000000
2017-09-22 00:47:23,0.00,0.25,0.00,17.11,20.88,23.55,14.22,45.51,1019.07,2057.99,3452.01,3067.99,3504.43,599.94,609.48,41.22,0000 0000 0000 0000 000000
2017-09-22 00:52:24,0.00,0.25,0.00,17.10,20.87,23.58,14.28,45.53,1019.14,2057.99,3452.01,3067.99,3504.24,600.02,609.68,41.27,0000 0000 0000 0000 000000
2017-09-22 00:57:25,0.00,0.25,0.00,17.10,20.87,23.57,14.29,45.49,1019.17,2057.99,3451.99,3067.99,3504.03,600.39,609.90,41.32,0000 0000 0000 0000 000000
2017-09-22 01:02:27,0.00,0.25,0.00,17.09,20.87,23.55,14.30,45.56,1019.20,2057.99,3451.99,3067.99,3504.01,600.13,609.84,41.37,0000 0000 0000 0000 000000
2017-09-22 01:07:28,0.00,0.25,0.00,17.10,20.87,23.53,14.06,45.48,1019.37,2058.00,3451.93,3067.98,3504.00,599.36,609.20,41.43,0000 0000 0000 0000 000000
2017-09-22 01:12:29,0.00,0.25,0.00,17.09,20.87,23.50,14.34,45.51,1019.47,2058.00,3451.85,3067.98,3504.00,600.15,609.96,41.48,0000 0000 0000 0000 000000
2017-09-22 01:17:30,0.00,0.25,0.00,17.09,20.86,23.55,14.19,45.50,1019.49,2058.00,3451.68,3067.96,3504.00,599.79,609.77,41.53,0000 0000 0000 0000 000000
2017-09-22 01:22:32,0.00,0.26,0.00,17.10,20.85,23.57,14.13,45.43,1019.51,2058.00,3451.26,3067.96,3503.99,599.55,609.42,41.58,0000 0000 0000 0000 000000
2017-09-22 01:27:33,-0.00,0.26,0.00,17.10,20.85,23.57,14.21,45.53,1019.54,2058.00,3451.09,3067.95,3503.98,600.00,609.80,41.63,0000 0000 0000 0000 000000
2017-09-22 01:32:34,0.00,0.26,0.00,17.10,20.84,23.51,14.20,45.45,1019.55,2058.00,3451.02,3067.90,3503.91,599.90,609.77,41.68,0000 0000 0000 0000 000000
2017-09-22 01:37:35,-0.00,0.26,0.00,17.12,20.84,23.55,14.18,45.52,1019.55,2058.00,3451.01,3067.89,3503.88,600.02,609.88,41.73,0000 0000 0000 0000 000000
2017-09-22 01:42:36,0.00,0.26,0.00,17.12,20.84,23.55,14.21,45.42,1019.55,2058.00,3450.99,3067.87,3503.63,599.85,609.74,41.78,0000 0000 0000 0000 000000
2017-09-22 01:47:38,0.01,0.26,0.00,17.12,20.84,23.52,14.26,45.48,1019.55,2058.01,3450.98,3067.80,3503.33,600.06,609.93,41.83,0000 0000 0000 0000 000000
2017-09-22 01:52:39,-0.00,0.26,0.00,17.12,20.84,23.55,14.15,45.42,1019.57,2058.00,3450.97,3067.75,3503.11,599.72,609.62,41.88,0000 0000 0000 0000 000000
2017-09-22 01:57:40,0.01,0.26,0.00,17.12,20.84,23.60,14.25,45.42,1019.67,2058.00,3450.92,3067.52,3503.02,599.86,609.89,41.93,0000 0000 0000 0000 000000
2017-09-22 02:02:41,0.01,0.26,0.00,17.12,20.84,23.57,14.31,45.42,1019.83,2058.00,3450.55,3067.31,3503.00,600.01,610.01,41.98,0000 0000 0000 0000 000000
2017-09-22 02:07:43,-0.01,0.26,0.00,17.13,20.84,23.56,14.28,45.47,1019.90,2058.00,3450.65,3067.46,3503.00,600.00,610.10,42.03,0000 0000 0000 0000 000000
2017-09-22 02:12:44,0.01,0.26,0.00,17.12,20.84,23.55,14.25,45.39,1019.95,2058.00,3450.32,3067.21,3502.99,600.00,610.04,42.08,0000 0000 0000 0000 000000
2017-09-22 02:17:45,0.01,0.26,0.00,17.12,20.84,23.61,14.30,45.42,1019.91,2058.00,3450.05,3067.11,3502.96,599.99,610.05,42.13,0000 0000 0000 0000 000000
2017-09-22 02:22:46,0.00,0.26,0.00,17.12,20.84,23.62,14.30,45.42,1020.00,2058.00,3450.00,3067.07,3502.97,600.16,610.29,42.18,0000 0000 0000 0000 000000
2017-09-22 02:27:47,0.00,0.26,0.00,17.14,20.84,23.63,14.22,45.44,1020.02,2058.01,3450.00,3067.03,3502.78,599.76,609.80,42.23,0000 0000 0000 0000 000000
2017-09-22 02:32:48,0.00,0.26,0.00,17.14,20.84,23.64,14.34,45.54,1020.03,2058.01,3449.99,3067.01,3502.47,600.35,610.50,42.28,0000 0000 0000 0000 000000
2017-09-22 02:37:50,0.01,0.26,0.00,17.14,20.84,23.62,14.26,45.46,1020.03,2058.00,3449.84,3067.00,3502.05,599.93,610.02,42.33,0000 0000 0000 0000 000000
2017-09-22 02:42:51,0.00,0.26,0.00,17.14,20.84,23.62,14.36,45.58,1020.04,2058.00,3449.68,3067.00,3502.02,600.48,610.60,42.38,0000 0000 0000 0000 000000
2017-09-22 02:47:52,0.01,0.26,0.00,17.15,20.84,23.60,14.27,45.43,1020.04,2058.00,3449.08,3066.99,3502.00,599.94,609.92,42.44,0000 0000 0000 0000 000000
2017-09-22 02:52:54,0.00,0.26,0.00,17.16,20.84,23.58,14.26,45.53,1020.08,2058.00,3449.00,3066.97,3501.97,600.02,610.14,42.49,0000 0000 0000 0000 000000
2017-09-22 02:57:55,0.00,0.26,0.00,17.15,20.84,23.63,14.23,45.42,1020.23,2058.00,3449.00,3066.98,3501.92,600.02,610.18,42.54,0000 0000 0000 0000 000000
2017-09-22 03:02:56,0.00,0.26,0.00,17.16,20.84,23.62,14.25,45.53,1020.36,2058.00,3448.98,3066.94,3501.73,599.86,610.13,42.59,0000 0000 0000 0000 000000
2017-09-22 03:07:57,-0.00,0.26,0.00,17.17,20.84,23.61,14.21,45.48,1020.45,2058.00,3448.98,3066.95,3501.41,600.10,610.39,42.64,0000 0000 0000 0000 000000
2017-09-22 03:12:58,0.01,0.26,0.00,17.17,20.84,23.62,14.24,45.39,1020.50,2058.00,3448.75,3066.69,3501.08,599.88,610.27,42.69,0000 0000 0000 0000 000000
2017-09-22 03:17:59,0.02,0.26,0.00,17.18,20.84,23.64,14.21,45.29,1020.50,2058.00,3448.28,3066.34,3501.00,599.94,610.28,42.74,0000 0000 0000 0000 000000
2017-09-22 03:23:01,0.00,0.26,0.00,17.18,20.84,23.64,14.23,45.42,1020.51,2058.00,3448.13,3066.17,3501.00,599.67,609.94,42.79,0000 0000 0000 0000 000000
2017-09-22 03:28:02,0.00,0.26,0.00,17.19,20.84,23.65,14.30,45.46,1020.51,2057.99,3448.01,3066.04,3500.98,600.08,610.39,42.84,0000 0000 0000 0000 000000
2017-09-22 03:33:03,0.00,0.26,0.00,17.20,20.85,23.66,14.27,45.49,1020.50,2057.99,3448.00,3066.02,3500.96,600.19,610.48,42.89,0000 0000 0000 0000 000000
2017-09-22 03:38:04,0.00,0.26,0.00,17.21,20.85,23.66,14.26,45.48,1020.52,2057.99,3447.99,3066.02,3500.86,599.91,610.25,42.94,0000 0000 0000 0000 000000
2017-09-22 03:43:06,0.01,0.26,0.00,17.21,20.86,23.68,14.21,45.27,1020.52,2057.98,3447.89,3066.00,3500.28,599.93,610.35,42.99,0000 0000 0000 0000 000000
2017-09-22 03:48:07,0.01,0.26,0.00,17.22,20.87,23.67,14.20,45.41,1020.52,2057.98,3447.58,3066.00,3500.03,599.99,610.23,43.04,0000 0000 0000 0000 000000
2017-09-22 03:53:08,0.00,0.26,0.00,17.22,20.87,23.63,14.34,45.48,1020.52,2057.99,3447.20,3065.99,3500.00,600.28,610.44,43.09,0000 0000 0000 0000 000000
2017-09-22 03:58:09,0.00,0.26,0.00,17.22,20.87,23.68,14.24,45.40,1020.53,2057.99,3447.00,3065.96,3500.00,599.84,609.90,43.14,0000 0000 0000 0000 000000
2017-09-22 04:03:10,0.00,0.26,0.00,17.22,20.87,23.67,14.28,45.56,1020.53,2057.99,3446.98,3065.95,3499.97,600.14,610.22,43.19,0000 0000 0000 0000 000000
2017-09-22 04:08:11,0.02,0.26,0.00,17.23,20.87,23.67,14.30,45.51,1020.58,2057.99,3446.86,3065.73,3499.77,600.26,610.57,43.24,0000 0000 0000 0000 000000
2017-09-22 04:13:13,0.02,0.27,0.00,17.22,20.87,23.66,14.30,45.48,1020.69,2057.99,3446.45,3065.37,3499.23,600.08,610.47,43.29,0000 0000 0000 0000 000000
2017-09-22 04:18:14,0.01,0.27,0.00,17.24,20.89,23.69,14.22,45.46,1020.83,2057.99,3446.05,3065.08,3499.03,600.01,610.38,43.35,0000 0000 0000 0000 000000
2017-09-22 04:23:15,0.00,0.27,0.00,17.24,20.89,23.69,14.29,45.46,1020.92,2057.98,3446.02,3065.06,3499.00,600.39,610.85,43.40,0000 0000 0000 0000 000000
2017-09-22 04:28:16,0.00,0.27,0.00,17.26,20.89,23.67,14.29,45.62,1020.89,2057.98,3445.99,3065.03,3498.99,600.49,610.87,43.45,0000 0000 0000 0000 000000
2017-09-22 04:33:17,0.00,0.27,0.00,17.27,20.89,23.72,14.24,45.51,1020.96,2057.98,3445.98,3065.00,3498.96,599.90,610.28,43.50,0000 0000 0000 0000 000000
2017-09-22 04:38:19,0.00,0.27,0.00,17.27,20.89,23.73,14.33,45.50,1021.00,2057.96,3445.85,3065.00,3498.76,600.34,610.72,43.55,0000 0000 0000 0000 000000
2017-09-22 04:43:20,0.01,0.27,0.00,17.27,20.89,23.72,14.27,45.44,1021.01,2057.98,3445.14,3064.99,3498.31,599.88,610.37,43.60,0000 0000 0000 0000 000000
2017-09-22 04:48:21,0.00,0.27,0.00,17.29,20.90,23.75,14.26,45.55,1021.01,2057.98,3445.01,3064.98,3498.03,599.97,610.36,43.65,0000 0000 0000 0000 000000
2017-09-22 04:53:22,0.00,0.27,0.00,17.31,20.90,23.76,14.25,45.44,1021.01,2057.98,3444.99,3064.97,3498.00,600.28,610.64,43.70,0000 0000 0000 0000 000000
2017-09-22 04:58:23,0.00,0.27,0.00,17.30,20.92,23.76,14.17,45.46,1021.02,2057.97,3444.96,3064.78,3497.99,599.76,610.11,43.75,0000 0000 0000 0000 000000
2017-09-22 05:03:24,0.00,0.27,0.00,17.32,20.92,23.78,14.29,45.54,1021.04,2057.98,3444.81,3064.53,3497.98,600.32,610.62,43.80,0000 0000 0000 0000 000000
2017-09-22 05:08:26,0.02,0.27,0.00,17.34,20.92,23.79,14.32,45.52,1021.08,2057.98,3444.34,3064.21,3497.90,600.20,610.57,43.85,0000 0000 0000 0000 000000
2017-09-22 05:13:27,0.01,0.27,0.00,17.34,20.92,23.81,14.32,45.69,1021.20,2057.97,3444.04,3064.03,3497.37,600.35,610.77,43.90,0000 0000 0000 0000 000000
2017-09-22 05:18:29,0.00,0.27,0.00,17.34,20.93,23.81,14.28,45.67,1021.31,2057.96,3444.01,3064.01,3497.07,599.92,610.19,43.95,0000 0000 0000 0000 000000
2017-09-22 05:23:30,-0.00,0.27,0.00,17.34,20.94,23.84,14.29,45.60,1021.40,2057.94,3443.99,3064.00,3497.01,599.98,610.46,44.00,0000 0000 0000 0000 000000
2017-09-22 05:28:31,0.00,0.27,0.00,17.34,20.94,23.78,14.30,45.65,1021.47,2057.94,3443.92,3064.00,3497.00,600.10,610.65,44.05,0000 0000 0000 0000 000000
2017-09-22 05:33:32,0.00,0.27,0.00,17.35,20.94,23.79,14.29,45.60,1021.50,2057.89,3443.55,3064.00,3496.98,600.10,610.66,44.10,0000 0000 0000 0000 000000
2017-09-22 05:38:33,-0.01,0.27,0.00,17.36,20.95,23.80,14.33,45.67,1021.50,2057.86,3443.52,3064.00,3496.96,600.45,610.76,44.15,0000 0000 0000 0000 000000
2017-09-22 05:43:34,0.00,0.27,0.00,17.37,20.96,23.82,14.27,45.61,1021.50,2057.60,3443.08,3063.97,3496.43,600.06,610.59,44.20,0000 0000 0000 0000 000000
2017-09-22 05:48:36,0.02,0.27,0.00,17.39,20.97,23.82,14.28,45.63,1021.50,2057.79,3443.01,3063.97,3496.13,599.69,610.17,44.26,0000 0000 0000 0000 000000
2017-09-22 05:53:37,-0.02,0.27,0.00,17.38,20.97,23.84,14.19,45.65,1021.51,2057.61,3442.99,3063.91,3496.02,599.90,610.31,44.31,0000 0000 0000 0000 000000
2017-09-22 05:58:39,-0.01,0.27,0.00,17.39,20.97,23.88,14.28,45.43,1021.51,2057.36,3442.97,3063.54,3496.00,600.17,610.65,44.36,0000 0000 0000 0000 000000
2017-09-22 06:03:40,-0.00,0.27,0.00,17.37,20.99,23.88,14.18,45.57,1021.52,2057.19,3442.68,3063.17,3495.99,600.03,610.59,44.41,0000 0000 0000 0000 000000
2017-09-22 06:08:41,0.01,0.27,0.00,17.37,20.99,23.87,14.30,45.59,1021.52,2057.13,3442.08,3063.01,3495.87,600.25,610.82,44.46,0000 0000 0000 0000 000000
2017-09-22 06:13:43,0.00,0.27,0.00,17.37,20.99,23.85,14.28,45.54,1021.53,2057.08,3442.00,3063.00,3495.31,600.14,610.71,44.51,0000 0000 0000 0000 000000
2017-09-22 06:18:44,-0.00,0.27,0.00,17.38,20.99,23.87,14.25,45.58,1021.54,2057.07,3441.99,3063.00,3495.06,600.15,610.71,44.56,0000 0000 0000 0000 000000
2017-09-22 06:23:45,-0.00,0.27,0.00,17.38,21.00,23.88,14.33,45.55,1021.54,2057.01,3441.96,3062.99,3495.01,600.22,610.63,44.61,0000 0000 0000 0000 000000
2017-09-22 06:28:46,0.01,0.27,0.00,17.39,21.02,23.91,14.30,45.52,1021.59,2057.03,3441.66,3062.98,3495.00,600.23,610.75,44.66,0000 0000 0000 0000 000000
2017-09-22 06:33:48,0.01,0.27,0.00,17.40,21.02,23.91,14.28,45.55,1021.80,2057.01,3441.22,3062.90,3494.97,600.07,610.71,44.71,0000 0000 0000 0000 000000
2017-09-22 06:38:49,0.01,0.27,0.00,17.41,21.02,23.91,14.18,45.52,1021.94,2057.02,3441.03,3062.50,3494.77,600.03,610.76,44.76,0000 0000 0000 0000 000000
2017-09-22 06:43:50,0.01,0.27,0.00,17.43,21.02,23.88,14.14,45.48,1021.98,2057.01,3441.00,3062.15,3494.19,599.80,610.50,44.81,0000 0000 0000 0000 000000
2017-09-22 06:48:51,0.00,0.27,0.00,17.44,21.04,23.90,14.26,45.49,1021.99,2057.00,3440.97,3062.02,3494.01,600.06,610.71,44.86,0000 0000 0000 0000 000000
2017-09-22 06:53:53,0.00,0.27,0.00,17.44,21.04,23.94,14.15,45.27,1021.99,2057.00,3440.78,3062.00,3494.00,599.76,610.25,44.91,0000 0000 0000 0000 000000
2017-09-22 06:58:54,0.01,0.27,0.00,17.43,21.04,23.90,14.25,45.45,1021.99,2057.00,3440.10,3062.00,3493.98,600.15,610.82,44.96,0000 0000 0000 0000 000000
2017-09-22 07:03:55,0.00,0.27,0.00,17.45,21.04,23.92,14.22,45.38,1021.99,2057.00,3440.00,3061.98,3493.81,599.92,610.55,45.01,0000 0000 0000 0000 000000
2017-09-22 07:08:56,0.01,0.28,0.00,17.44,21.05,23.94,14.32,45.52,1021.99,2057.00,3440.00,3061.95,3493.23,599.70,610.33,45.06,0000 0000 0000 0000 000000
2017-09-22 07:13:57,0.00,0.28,0.00,17.44,21.07,23.94,14.22,45.44,1022.00,2057.00,3439.98,3061.97,3493.06,599.97,610.54,45.11,0000 0000 0000 0000 000000
2017-09-22 07:18:59,0.01,0.28,0.00,17.44,21.07,23.94,14.22,45.41,1022.03,2057.00,3439.89,3061.82,3493.01,599.97,610.72,45.17,0000 0000 0000 0000 000000
2017-09-22 07:24:00,0.01,0.28,0.00,17.45,21.07,23.94,14.22,45.40,1022.06,2057.00,3439.52,3061.57,3493.00,599.93,610.47,45.22,0000 0000 0000 0000 000000
2017-09-22 07:29:01,0.01,0.28,0.00,17.47,21.07,23.97,14.26,45.42,1022.09,2057.00,3439.06,3061.14,3492.98,599.80,610.48,45.27,0000 0000 0000 0000 000000
2017-09-22 07:34:02,0.00,0.28,0.00,17.47,21.09,23.97,14.32,45.41,1022.17,2057.00,3439.00,3061.04,3492.80,600.46,611.12,45.32,0000 0000 0000 0000 000000
2017-09-22 07:39:03,0.01,0.28,0.00,17.47,21.09,23.97,14.25,45.45,1022.36,2057.00,3438.98,3061.00,3492.16,599.96,610.81,45.37,0000 0000 0000 0000 000000
2017-09-22 07:44:04,0.00,0.28,0.00,17.47,21.09,23.96,14.25,45.39,1022.43,2057.00,3438.94,3061.00,3492.01,600.11,610.99,45.42,0000 0000 0000 0000 000000
2017-09-22 07:49:06,0.00,0.28,0.00,17.47,21.09,23.95,14.21,45.48,1022.48,2057.00,3438.78,3061.00,3492.00,599.65,610.65,45.47,0000 0000 0000 0000 000000
2017-09-22 07:54:07,0.00,0.28,0.00,17.48,21.10,23.96,14.22,45.45,1022.48,2056.98,3438.16,3060.98,3492.00,600.00,610.87,45.52,0000 0000 0000 0000 000000
2017-09-22 07:59:09,0.00,0.28,0.00,17.48,21.11,24.00,14.27,45.41,1022.48,2056.99,3438.02,3060.97,3491.98,599.95,610.71,45.57,0000 0000 0000 0000 000000
2017-09-22 08:04:10,0.09,0.28,0.00,17.49,21.12,23.98,14.31,45.38,1022.48,2056.99,3436.85,3060.33,3491.08,600.18,611.03,45.62,0000 0000 0000 0000 000000
2017-09-22 08:09:11,0.06,0.29,0.00,17.49,21.12,23.95,14.22,45.38,1022.48,2056.97,3434.00,3059.00,3489.19,599.74,610.57,45.67,0000 0000 0000 0000 000000
2017-09-22 08:14:13,0.03,0.29,0.00,17.49,21.12,23.98,14.32,45.33,1022.48,2056.98,3433.30,3058.68,3489.01,600.19,611.00,45.72,0000 0000 0000 0000 000000
2017-09-22 08:19:14,0.00,0.29,0.00,17.49,21.12,23.97,14.33,45.40,1022.49,2056.96,3433.02,3058.28,3489.00,600.03,610.76,45.77,0000 0000 0000 0000 000000
2017-09-22 08:24:15,-0.00,0.29,0.00,17.50,21.13,23.98,14.23,45.26,1022.50,2056.95,3433.00,3058.07,3488.97,599.93,610.77,45.82,0000 0000 0000 0000 000000
2017-09-22 08:29:16,0.01,0.29,0.00,17.51,21.14,23.97,14.27,45.48,1022.52,2056.96,3432.92,3058.00,3488.52,599.79,610.61,45.87,0000 0000 0000 0000 000000
2017-09-22 08:34:17,0.01,0.29,0.00,17.51,21.14,24.00,14.25,45.32,1022.63,2056.96,3432.57,3058.00,3488.13,599.82,610.67,45.92,0000 0000 0000 0000 000000
2017-09-22 08:39:19,-0.01,0.29,0.00,17.52,21.14,23.99,14.30,45.53,1022.55,2056.87,3432.44,3058.00,3488.02,599.80,610.73,45.97,0000 0000 0000 0000 000000
2017-09-22 08:44:20,-0.01,0.29,0.00,17.51,21.14,23.98,14.31,45.49,1022.51,2056.65,3432.26,3058.00,3488.00,600.07,610.85,46.02,0000 0000 0000 0000 000000
2017-09-22 08:49:21,0.02,0.29,0.00,17.50,21.15,23.99,14.26,45.53,1022.58,2056.81,3431.98,3057.96,3487.99,600.04,610.95,46.08,0000 0000 0000 0000 000000
2017-09-22 08:54:22,0.00,0.29,0.00,17.50,21.16,24.01,14.21,45.34,1022.67,2056.96,3431.96,3057.93,3487.97,599.84,610.78,46.13,0000 0000 0000 0000 000000
2017-09-22 08:59:24,0.02,0.29,0.00,17.50,21.17,23.99,14.26,45.30,1022.67,2056.90,3431.59,3057.59,3487.83,600.02,610.93,46.18,0000 0000 0000 0000 000000
2017-09-22 09:04:25,0.02,0.29,0.00,17.50,21.17,23.97,14.34,45.42,1022.81,2056.92,3431.13,3057.27,3487.44,600.24,611.30,46.23,0000 0000 0000 0000 000000
2017-09-22 09:09:26,0.01,0.29,0.00,17.51,21.17,23.95,14.29,45.42,1022.92,2056.95,3431.01,3057.11,3487.10,599.98,611.07,46.28,0000 0000 0000 0000 000000
2017-09-22 09:14:28,-0.00,0.29,0.00,17.52,21.17,23.98,14.23,45.37,1022.95,2056.96,3431.00,3057.02,3487.01,599.98,611.08,46.33,0000 0000 0000 0000 000000
2017-09-22 09:19:29,0.00,0.29,0.00,17.51,21.17,23.97,14.30,45.46,1022.95,2056.95,3430.98,3057.01,3486.99,599.97,611.06,46.38,0000 0000 0000 0000 000000
2017-09-22 09:24:30,0.01,0.29,0.00,17.50,21.17,23.95,14.23,45.52,1022.96,2056.94,3430.55,3057.00,3486.98,599.86,610.84,46.43,0000 0000 0000 0000 000000
2017-09-22 09:29:31,0.01,0.29,0.00,17.50,21.18,23.96,14.27,45.41,1022.94,2056.96,3430.08,3056.99,3486.92,600.00,611.10,46.48,0000 0000 0000 0000 000000
2017-09-22 09:34:33,-0.00,0.29,0.00,17.50,21.19,24.00,14.30,45.50,1022.96,2056.94,3430.04,3056.99,3486.68,600.12,611.02,46.53,0000 0000 0000 0000 000000
2017-09-22 09:39:34,0.01,0.30,0.00,17.50,21.19,23.94,14.27,45.44,1022.96,2056.95,3430.00,3056.98,3486.18,599.79,610.93,46.58,0000 0000 0000 0000 000000
2017-09-22 09:44:35,0.00,0.30,0.00,17.50,21.19,23.97,14.28,45.45,1022.96,2056.98,3429.98,3056.94,3486.04,600.09,611.20,46.63,0000 0000 0000 0000 000000
2017-09-22 09:49:36,0.01,0.30,0.00,17.52,21.19,23.98,14.33,45.45,1022.96,2056.93,3429.68,3056.47,3486.00,599.88,610.95,46.68,0000 0000 0000 0000 000000
2017-09-22 09:54:38,0.01,0.30,0.00,17.51,21.19,24.00,14.23,45.38,1022.96,2056.98,3429.45,3056.44,3486.00,599.85,610.95,46.73,0000 0000 0000 0000 000000
2017-09-22 09:59:39,0.01,0.30,0.00,17.51,21.19,23.99,14.31,45.49,1022.96,2056.98,3429.03,3056.11,3485.97,600.38,611.48,46.78,0000 0000 0000 0000 000000
2017-09-22 10:04:40,0.00,0.30,0.00,17.52,21.19,23.97,14.20,45.49,1022.96,2056.98,3429.00,3056.02,3485.79,600.03,610.99,46.83,0000 0000 0000 0000 000000
2017-09-22 10:09:41,0.01,0.30,0.00,17.51,21.19,23.96,14.27,45.43,1022.96,2056.97,3429.00,3056.02,3485.49,599.60,610.67,46.88,0000 0000 0000 0000 000000
2017-09-22 10:14:42,0.00,0.30,0.00,17.52,21.20,23.96,14.20,45.46,1022.96,2056.98,3428.94,3056.00,3485.07,599.54,610.48,46.93,0000 0000 0000 0000 000000
2017-09-22 10:19:44,0.01,0.30,0.00,17.52,21.20,23.95,14.29,45.41,1022.96,2056.98,3428.43,3056.00,3485.01,600.00,611.08,46.98,0000 0000 0000 0000 000000
2017-09-22 10:24:45,0.00,0.30,0.00,17.52,21.21,23.99,14.29,45.42,1022.98,2056.98,3428.11,3056.00,3485.00,600.06,611.21,47.04,0000 0000 0000 0000 000000
2017-09-22 10:29:46,0.00,0.30,0.00,17.52,21.21,23.99,14.27,45.47,1023.01,2056.98,3428.02,3056.00,3484.99,600.27,611.30,47.09,0000 0000 0000 0000 000000
2017-09-22 10:34:47,-0.00,0.30,0.00,17.52,21.21,23.95,14.28,45.40,1023.19,2056.97,3427.99,3055.98,3484.95,600.06,611.30,47.14,0000 0000 0000 0000 000000
2017-09-22 10:39:49,0.01,0.30,0.00,17.53,21.22,23.98,14.29,45.28,1023.37,2056.97,3427.98,3055.90,3484.72,599.97,611.19,47.19,0000 0000 0000 0000 000000
2017-09-22 10:44:50,0.01,0.30,0.00,17.54,21.22,23.97,14.22,45.27,1023.40,2056.95,3427.85,3055.64,3484.15,599.91,611.16,47.24,0000 0000 0000 0000 000000
2017-09-22 10:49:51,0.01,0.30,0.00,17.54,21.22,23.94,14.30,45.31,1023.43,2056.96,3427.43,3055.26,3484.02,600.08,611.41,47.29,0000 0000 0000 0000 000000
2017-09-22 10:54:53,0.00,0.30,0.00,17.52,21.22,23.96,14.31,45.33,1023.44,2056.95,3427.02,3055.04,3484.00,600.11,611.51,47.34,0000 0000 0000 0000 000000
2017-09-22 10:59:54,-0.00,0.30,0.00,17.50,21.22,23.97,14.22,45.21,1023.44,2056.95,3427.01,3055.01,3484.00,599.88,611.27,47.39,0000 0000 0000 0000 000000
2017-09-22 11:04:55,0.00,0.30,0.00,17.51,21.22,24.01,14.20,45.20,1023.44,2056.94,3427.00,3055.01,3483.99,599.65,611.04,47.44,0000 0000 0000 0000 000000
2017-09-22 11:09:56,0.00,0.30,0.00,17.52,21.22,23.98,14.31,45.32,1023.43,2056.94,3426.97,3055.00,3483.91,600.17,611.47,47.49,0000 0000 0000 0000 000000
2017-09-22 11:14:58,0.01,0.30,0.00,17.51,21.22,23.98,14.25,45.34,1023.44,2056.97,3426.76,3054.98,3483.59,599.82,611.18,47.54,0000 0000 0000 0000 000000
2017-09-22 11:19:59,0.00,0.30,0.00,17.50,21.22,23.95,14.21,45.38,1023.43,2056.96,3426.39,3054.98,3483.23,599.57,611.08,47.59,0000 0000 0000 0000 000000
2017-09-22 11:25:00,0.00,0.30,0.00,17.52,21.22,23.97,14.26,45.27,1023.43,2056.98,3426.07,3054.97,3483.06,600.08,611.44,47.64,0000 0000 0000 0000 000000
2017-09-22 11:30:01,-0.00,0.30,0.00,17.49,21.22,23.96,14.30,45.38,1023.44,2056.98,3426.03,3054.97,3483.01,600.14,611.65,47.69,0000 0000 0000 0000 000000
2017-09-22 11:35:03,0.00,0.30,0.00,17.50,21.22,23.96,14.20,45.29,1023.45,2056.95,3426.00,3054.83,3483.00,599.64,611.08,47.74,0000 0000 0000 0000 000000
2017-09-22 11:40:04,0.00,0.30,0.00,17.49,21.22,23.98,14.26,45.42,1023.45,2056.97,3425.99,3054.57,3482.99,599.96,611.40,47.79,0000 0000 0000 0000 000000
2017-09-22 11:45:05,0.01,0.30,0.00,17.50,21.22,23.95,14.20,45.28,1023.45,2056.95,3425.95,3054.24,3482.98,599.49,611.00,47.84,0000 0000 0000 0000 000000
2017-09-22 11:50:06,0.01,0.30,0.00,17.49,21.22,23.98,14.27,45.42,1023.45,2056.97,3425.62,3054.08,3482.90,600.00,611.47,47.89,0000 0000 0000 0000 000000
2017-09-22 11:55:07,0.01,0.31,0.00,17.49,21.22,23.97,14.27,45.34,1023.45,2056.96,3425.10,3054.03,3482.52,600.16,611.52,47.95,0000 0000 0000 0000 000000
2017-09-22 12:00:09,0.01,0.31,0.00,17.48,21.22,23.94,14.26,45.28,1023.45,2056.96,3425.04,3054.01,3482.20,600.29,611.69,48.00,0000 0000 0000 0000 000000
2017-09-22 12:05:10,0.00,0.31,0.00,17.48,21.22,23.94,14.33,45.33,1023.45,2056.97,3425.02,3054.00,3482.06,600.34,611.66,48.05,0000 0000 0000 0000 000000
2017-09-22 12:10:12,0.00,0.31,0.00,17.48,21.22,23.96,14.27,45.38,1023.45,2056.97,3425.00,3054.00,3482.01,600.12,611.56,48.10,0000 0000 0000 0000 000000
2017-09-22 12:15:13,-0.00,0.31,0.00,17.48,21.22,23.95,14.31,45.37,1023.45,2056.96,3425.00,3054.00,3482.00,599.91,611.48,48.15,0000 0000 0000 0000 000000
2017-09-22 12:20:14,-0.00,0.31,0.00,17.47,21.22,23.92,14.29,45.43,1023.45,2056.96,3424.99,3054.00,3482.00,599.66,611.10,48.20,0000 0000 0000 0000 000000
2017-09-22 12:25:15,0.00,0.31,0.00,17.47,21.22,23.94,14.31,45.32,1023.45,2056.97,3424.95,3053.99,3481.99,599.99,611.36,48.25,0000 0000 0000 0000 000000
2017-09-22 12:30:16,0.00,0.31,0.00,17.47,21.22,23.93,14.28,45.34,1023.45,2056.97,3424.91,3053.99,3481.98,599.83,611.33,48.30,0000 0000 0000 0000 000000
2017-09-22 12:35:17,0.00,0.31,0.00,17.47,21.22,23.90,14.30,45.33,1023.45,2056.97,3424.72,3053.98,3481.98,600.19,611.64,48.35,0000 0000 0000 0000 000000
2017-09-22 12:40:18,0.01,0.31,0.00,17.47,21.21,23.93,14.28,45.33,1023.45,2056.98,3424.44,3053.99,3481.98,600.03,611.56,48.40,0000 0000 0000 0000 000000
2017-09-22 12:45:20,0.01,0.31,0.00,17.47,21.20,23.93,14.25,45.45,1023.45,2056.98,3424.03,3053.98,3481.61,599.57,611.21,48.45,0000 0000 0000 0000 000000
2017-09-22 12:50:21,0.00,0.31,0.00,17.47,21.20,23.91,14.29,45.42,1023.45,2056.97,3424.00,3053.97,3481.37,599.99,611.43,48.50,0000 0000 0000 0000 000000
2017-09-22 12:55:22,0.00,0.31,0.00,17.47,21.20,23.96,14.35,45.46,1023.45,2056.96,3424.00,3053.89,3481.07,600.32,611.88,48.55,0000 0000 0000 0000 000000